This is the latest recevied weather packets stored in our database for station/object SR9SMR. If no packets are shown the sender has not sent any weather packets the latest 1 day(s).
| Time | Temp. | Humidity | Pressure | Rain* | Wind** | Luminosity | Snow |
|---|---|---|---|---|---|---|---|
| 1777985031 | 18.89° C | 100% | 895.9 hPa | - | 10.28 m/s, 218° | - | - |
| 1777984969 | 18.89° C | 100% | 895.8 hPa | - | 9.83 m/s, 211° | - | - |
| 1777984867 | 18.89° C | 100% | 895.8 hPa | - | 10.73 m/s, 208° | - | - |
| 1777984805 | 18.89° C | 100% | 895.6 hPa | - | 10.73 m/s, 210° | - | - |
| 1777984612 | 18.89° C | 100% | 895.7 hPa | - | 9.39 m/s, 212° | - | - |
| 1777984539 | 18.89° C | 100% | 895.9 hPa | - | 9.39 m/s, 200° | - | - |
| 1777984490 | 18.89° C | 100% | 895.9 hPa | - | 9.39 m/s, 200° | - | - |
| 1777984430 | 18.89° C | 100% | 895.8 hPa | - | 9.83 m/s, 200° | - | - |
| 1777984314 | 18.89° C | 100% | 895.6 hPa | - | 10.73 m/s, 208° | - | - |
| 1777984252 | 18.89° C | 100% | 895.6 hPa | - | 10.28 m/s, 213° | - | - |
| 1777984179 | 18.89° C | 100% | 895.6 hPa | - | 10.28 m/s, 224° | - | - |
| 1777984059 | 18.89° C | 100% | 895.7 hPa | - | 9.83 m/s, 223° | - | - |
| 1777983938 | 18.33° C | 100% | 896 hPa | - | 8.49 m/s, 221° | - | - |
| 1777983816 | 18.89° C | 100% | 896.2 hPa | - | 8.49 m/s, 212° | - | - |
| 1777983696 | 18.33° C | 100% | 896.4 hPa | - | 8.05 m/s, 210° | - | - |
| 1777983636 | 18.33° C | 100% | 896.6 hPa | - | 8.05 m/s, 211° | - | - |
| 1777983522 | 17.78° C | 100% | 896.4 hPa | - | 7.6 m/s, 212° | - | - |
| 1777983462 | 17.78° C | 100% | 896.4 hPa | - | 6.71 m/s, 212° | - | - |
| 1777983401 | 17.78° C | 100% | 896.2 hPa | - | 7.15 m/s, 216° | - | - |
| 1777983281 | 17.78° C | 100% | 895.5 hPa | - | 7.15 m/s, 208° | - | - |
| 1777983157 | 17.22° C | 100% | 895.5 hPa | - | 10.28 m/s, 207° | - | - |
| 1777983033 | 17.22° C | 100% | 895.5 hPa | - | 10.28 m/s, 207° | - | - |
| 1777982913 | 17.22° C | 100% | 895.7 hPa | - | 9.39 m/s, 209° | - | - |
| 1777982853 | 17.22° C | 100% | 895.8 hPa | - | 8.94 m/s, 209° | - | - |
| 1777982792 | 17.78° C | 100% | 895.8 hPa | - | 8.94 m/s, 214° | - | - |
* Rain since midnight (hover to see other rain measurements)
** Current wind speed in m/s (hover to see current wind gust speed)